VK2OU Weather Reports


Display with metric or nautical units.
time (UTC)temp
F
wind
direction
speed
MPH
gust
MPH
rain 1hr
in
rain 24hr
in
rain mn
in
humidity
%
barometer
mb
20260906081521 53 253 5.0 7.0 0.00 0.00 0.00 79
20260906080545 53 261 3.0 6.0 0.00 0.00 0.00 78
20260906075601 54 258 3.0 7.0 0.00 0.00 0.00 77
20260906074606 54 267 3.0 8.0 0.00 0.00 0.00 76
20260906073522 55 265 4.0 7.0 0.00 0.00 0.00 75
20260906072545 56 278 4.0 8.0 0.00 0.00 0.00 73
20260906071521 57 287 5.0 8.0 0.00 0.00 0.00 71
20260906070545 58 278 4.0 9.0 0.00 0.00 0.00 70
20260906065522 58 265 5.0 8.0 0.00 0.00 0.00 68
20260906064605 58 264 3.0 8.0 0.00 0.00 0.00 68
20260906063521 58 284 4.0 8.0 0.00 0.00 0.00 67
20260906062530 59 281 5.0 9.0 0.00 0.00 0.00 66
20260906061522 60 291 5.0 9.0 0.00 0.00 0.00 65
20260906060611 59 250 4.0 9.0 0.00 0.00 0.00 66
20260906055521 59 288 7.0 11.0 0.00 0.00 0.00 66
20260906054529 60 275 7.0 13.0 0.00 0.00 0.00 65
20260906053523 60 265 6.0 11.0 0.00 0.00 0.00 64
20260906052545 62 287 5.0 10.0 0.00 0.00 0.00 61
20260906051541 63 263 3.0 8.0 0.00 0.00 0.00 58
20260906050530 64 262 2.0 5.0 0.00 0.00 0.00 54
20260906045542 64 204 3.0 7.0 0.00 0.00 0.00 51
20260906044545 64 152 1.0 5.0 0.00 0.00 0.00 48
20260906043541 65 153 1.0 5.0 0.00 0.00 0.00 47
20260906042529 65 218 1.0 2.0 0.00 0.00 0.00 47
20260906041521 63 180 2.0 6.0 0.00 0.00 0.00 50
20260906040529 62 161 2.0 7.0 0.00 0.00 0.00 50
20260906035522 63 112 4.0 7.0 0.00 0.00 0.00 50
20260906034614 63 215 2.0 5.0 0.00 0.00 0.00 50
20260906033522 62 100 3.0 10.0 0.00 0.00 0.00 51
20260906032529 63 146 3.0 8.0 0.00 0.00 0.00 51
20260906031521 63 178 4.0 8.0 0.00 0.00 0.00 50
20260906030530 63 230 2.0 5.0 0.00 0.00 0.00 50
20260906025522 64 170 3.0 7.0 0.00 0.00 0.00 49
20260906024530 63 190 3.0 8.0 0.00 0.00 0.00 49
20260906023522 63 189 3.0 10.0 0.00 0.00 0.00 49
20260906022529 62 191 3.0 9.0 0.00 0.00 0.00 50
20260906021521 62 212 4.0 9.0 0.00 0.00 0.00 49
20260906020550 62 219 4.0 7.0 0.00 0.00 0.00 50
20260906015522 62 191 3.0 6.0 0.00 0.00 0.00 50
20260906014530 62 216 3.0 6.0 0.00 0.00 0.00 50
20260906013522 62 208 3.0 8.0 0.00 0.00 0.00 51
20260906012529 60 162 4.0 9.0 0.00 0.00 0.00 52
20260906011522 62 185 4.0 9.0 0.00 0.00 0.00 50
20260906010555 60 181 2.0 6.0 0.00 0.00 0.00 55
20260906005547 59 248 4.0 7.0 0.00 0.00 0.00 57
20260906004530 58 232 1.0 5.0 0.00 0.00 0.00 57
20260906003521 57 253 3.0 8.0 0.00 0.00 0.00 59
20260906002530 55 225 4.0 9.0 0.00 0.00 0.00 62
20260906001521 55 249 4.0 7.0 0.00 0.00 0.00 63
20260906000530 54 246 3.0 9.0 0.00 0.00 0.00 66
20260905235542 54 259 4.0 8.0 0.00 0.00 0.00 66
20260905234530 53 277 5.0 10.0 0.00 0.00 0.00 67
20260905233522 53 265 4.0 8.0 0.00 0.00 0.00 67
20260905232529 52 278 6.0 9.0 0.00 0.00 0.00 69
20260905231522 52 261 5.0 11.0 0.00 0.00 0.00 70
20260905230531 52 259 6.0 11.0 0.00 0.00 0.00 69
20260905225542 50 265 6.0 10.0 0.00 0.00 0.00 73
20260905224530 50 263 5.0 14.0 0.00 0.00 0.00 75
20260905223522 49 256 5.0 10.0 0.00 0.00 0.00 76
20260905222530 49 268 7.0 11.0 0.00 0.00 0.00 75
20260905221522 49 287 5.0 9.0 0.00 0.00 0.00 76
20260905220530 49 273 3.0 7.0 0.00 0.00 0.00 76
20260905215522 48 276 5.0 9.0 0.00 0.00 0.00 77
20260905214530 47 269 4.0 10.0 0.00 0.00 0.00 79
20260905213522 46 276 5.0 9.0 0.00 0.00 0.00 81
20260905212529 46 261 5.0 9.0 0.00 0.00 0.00 81
20260905211522 46 285 3.0 5.0 0.00 0.00 0.00 79
20260905210529 46 275 1.0 3.0 0.00 0.00 0.00 78
20260905205522 45 279 3.0 8.0 0.00 0.00 0.00 80
20260905204529 44 277 5.0 10.0 0.00 0.00 0.00 81
20260905203542 43 275 3.0 6.0 0.00 0.00 0.00 83
20260905202550 43 0.0 0.0 0.00 0.00 0.00 83
20260905201522 44 284 1.0 5.0 0.00 0.00 0.00 81
20260905200530 44 267 4.0 9.0 0.00 0.00 0.00 80
20260905195542 44 265 6.0 10.0 0.00 0.00 0.00 81
20260905194530 44 270 4.0 8.0 0.00 0.00 0.00 80
20260905193521 44 264 3.0 7.0 0.00 0.00 0.00 80
20260905192550 44 269 4.0 8.0 0.00 0.00 0.00 79
20260905191522 44 273 3.0 8.0 0.00 0.00 0.00 80
20260905190530 45 273 4.0 9.0 0.00 0.00 0.00 78
20260905185522 45 271 7.0 15.0 0.00 0.00 0.00 77
20260905184530 45 254 7.0 11.0 0.00 0.00 0.00 77
20260905183542 45 264 7.0 13.0 0.00 0.00 0.00 77
20260905182530 45 277 5.0 11.0 0.00 0.00 0.00 79
20260905181522 44 278 5.0 11.0 0.00 0.00 0.00 79
20260905180530 44 284 4.0 10.0 0.00 0.00 0.00 79
20260905175522 45 281 2.0 5.0 0.00 0.00 0.00 79
20260905174530 45 273 3.0 6.0 0.00 0.00 0.00 78
20260905173522 45 255 6.0 11.0 0.00 0.00 0.00 77
20260905172550 45 265 12.0 21.0 0.00 0.00 0.00 77
20260905171522 45 268 11.0 25.0 0.00 0.00 0.00 78
20260905170531 45 262 7.0 15.0 0.00 0.00 0.00 79
20260905165543 46 275 7.0 13.0 0.00 0.00 0.00 78
20260905164530 45 261 8.0 16.0 0.00 0.00 0.00 78
20260905163522 45 267 8.0 16.0 0.00 0.00 0.00 78
20260905162550 45 263 10.0 17.0 0.00 0.00 0.00 79
20260905161522 45 261 9.0 16.0 0.00 0.00 0.00 79
20260905160529 46 271 8.0 15.0 0.00 0.00 0.00 79
20260905155522 46 263 4.0 9.0 0.00 0.00 0.00 79
20260905154610 46 253 5.0 15.0 0.00 0.00 0.00 79
20260905153522 45 269 7.0 14.0 0.00 0.00 0.00 81
20260905152530 45 259 5.0 11.0 0.00 0.00 0.00 81
20260905151522 45 264 6.0 11.0 0.00 0.00 0.00 83
20260905150530 45 264 7.0 13.0 0.00 0.00 0.00 85
20260905145522 45 265 8.0 15.0 0.00 0.00 0.00 86
20260905144550 46 264 8.0 17.0 0.00 0.00 0.00 84
20260905143522 47 253 5.0 10.0 0.00 0.00 0.00 79
20260905142530 48 262 7.0 15.0 0.00 0.00 0.00 74
20260905141542 47 267 6.0 15.0 0.00 0.00 0.00 76
20260905140530 47 276 6.0 15.0 0.00 0.00 0.00 78
20260905135522 47 270 4.0 10.0 0.00 0.00 0.00 77
20260905134530 48 276 6.0 14.0 0.00 0.00 0.00 76
20260905133522 48 281 5.0 10.0 0.00 0.00 0.00 76
20260905132530 48 262 4.0 13.0 0.00 0.00 0.00 77
20260905131522 49 260 5.0 13.0 0.00 0.00 0.00 76
20260905130530 49 275 7.0 15.0 0.00 0.00 0.00 77
20260905125542 49 256 7.0 14.0 0.00 0.00 0.00 75
20260905124550 50 253 10.0 21.0 0.00 0.00 0.00 73
20260905123522 50 264 13.0 25.0 0.00 0.00 0.00 70
20260905122550 50 276 8.0 15.0 0.00 0.00 0.00 73
20260905121522 50 274 6.0 11.0 0.00 0.00 0.00 72
20260905120530 50 270 8.0 15.0 0.00 0.00 0.00 72
20260905115522 50 275 6.0 14.0 0.00 0.00 0.00 72
20260905114530 50 264 6.0 14.0 0.00 0.00 0.00 71
20260905113542 51 267 8.0 15.0 0.00 0.00 0.00 71
20260905112530 51 267 7.0 13.0 0.00 0.00 0.00 70
20260905111548 51 273 6.0 14.0 0.00 0.00 0.00 69
20260905110530 52 284 8.0 18.0 0.00 0.00 0.00 67
20260905105523 52 270 8.0 16.0 0.00 0.00 0.00 68
20260905104530 52 268 8.0 18.0 0.00 0.00 0.00 68
20260905103522 52 269 10.0 23.0 0.00 0.00 0.00 68
20260905102530 52 265 9.0 19.0 0.00 0.00 0.00 71
20260905101543 52 275 7.0 15.0 0.00 0.00 0.00 76
20260905100530 52 274 7.0 16.0 0.00 0.00 0.00 79
20260905095522 51 272 6.0 17.0 0.00 0.00 0.00 84
20260905094530 51 268 4.0 9.0 0.00 0.00 0.00 89
20260905093522 51 267 3.0 7.0 0.00 0.00 0.00 90
20260905092530 51 280 4.0 8.0 0.00 0.00 0.00 89
20260905091522 51 272 4.0 9.0 0.00 0.00 0.00 89
20260905090550 51 271 5.0 10.0 0.00 0.00 0.00 89
20260905085522 51 286 6.0 13.0 0.00 0.00 0.00 89
20260905084530 51 293 7.0 15.0 0.00 0.00 0.00 89
20260905083522 51 288 6.0 11.0 0.00 0.00 0.00 91
20260905082531 51 286 4.0 9.0 0.00 0.00 0.00 93